Location: Unspecified
(33.2407°S, 0.0000°E)
Time: 17:36:03
(UTC+00:00)

Envisat - Pass Details

Date: 20 May 2019
Orbit: 764 x 766 km, 98.1° (Epoch: 24 June)

Event Time Altitude Azimuth Distance (km) Brightness Sun altitude
Exits shadow 18:34:37 27° 66° (ENE) 1,460 4.0 -18.5°
Drops below altitude 10° 18:38:06 10° 25° (NNE) 2,303 5.3 -19.2°
Sets 18:40:41 0° 13° (NNE) 3,221 6.2 -19.8°
